Location: Kimberly
(42.5380°N, 114.3640°W)
Time: 01:19:41
(UTC-07:00)

Amateur Radio Satellites - All Passes

Search period start: 14 December 2017 00:49
Search period end: 15 December 2017 00:49
Location: Kimberly, 42.5380°N, 114.3640°W

Satellite Date Start Highest point End Downlink Frequencies (MHz)
Time Altitude Azimuth
EO-79 14 Dec 00:49:56 00:54:09 82° 284° (WNW) 00:58:22 145.935-145.965
SO-50 14 Dec 00:53:01 00:57:42 83° 57° (ENE) 01:02:26 436.795
BUGSAT 1 14 Dec 00:54:08 00:57:00 19° 94° (E) 00:59:53 437.445
FALCONSAT 3 14 Dec 00:54:16 00:57:24 26° 177° (S) 01:00:31 435.103
RS-15 14 Dec 00:55:18 01:06:56 69° 244° (WSW) 01:17:56 29.354- 29.394
Oscar 19 14 Dec 00:55:56 00:58:28 14° 89° (E) 01:01:01 437.125/150
AIST 2D 14 Dec 01:03:06 01:05:01 14° 294° (WNW) 01:06:56 435.315
AO-91 14 Dec 01:11:31 01:12:27 11° 90° (E) 01:13:24 145.960
POLYITAN 1 14 Dec 01:12:51 01:16:54 45° 288° (WNW) 01:20:55 437.675
VELOX 1 14 Dec 01:18:52 01:22:50 31° 263° (W) 01:26:49 145.980
Gurwin Techsat 1B 14 Dec 01:30:00 01:34:02 21° 93° (E) 01:38:01 435.225
MOZHAYETS 4 14 Dec 01:33:47 01:35:30 12° 60° (ENE) 01:37:15
QB50P2 14 Dec 01:39:06 01:42:22 22° 293° (WNW) 01:45:38 145.880/145.840
DUCHIFAT 1 14 Dec 01:45:20 01:48:51 27° 292° (WNW) 01:52:22 145.980
BEESAT 14 Dec 01:47:18 01:49:24 13° 59° (ENE) 01:51:29 436.000
50 SAT 14 Dec 01:54:27 01:57:27 40° 261° (W) 02:00:29 437.505
UKube-1 14 Dec 02:02:29 02:06:48 77° 257° (WSW) 02:11:09 .
NANOSAT C BR1 14 Dec 02:12:35 02:14:34 13° 298° (WNW) 02:16:34 145.865
ITUPSAT 1 14 Dec 02:13:16 02:16:54 22° 64° (ENE) 02:20:32 437.325
DX 1 14 Dec 02:17:03 02:21:00 33° 263° (W) 02:24:58 434.975-435.025
BUGSAT 1 14 Dec 02:28:47 02:32:27 34° 290° (WNW) 02:36:08 437.445
FALCONSAT 3 14 Dec 02:33:07 02:35:57 21° 193° (SSW) 02:38:46 435.103
Oscar 19 14 Dec 02:33:08 02:38:20 75° 286° (WNW) 02:43:31 437.125/150
SO-50 14 Dec 02:35:50 02:37:30 12° 252° (WSW) 02:39:12 436.795
AO-91 14 Dec 02:45:59 02:49:14 37° 288° (WNW) 02:52:23 145.960
YUBILEINY 14 Dec 02:53:06 03:01:08 41° 86° (E) 03:09:11 435.215
CUBESAT XI-V 14 Dec 02:53:13 02:56:31 19° 64° (ENE) 02:59:50 437.345
MOZHAYETS 4 14 Dec 03:07:28 03:12:00 78° 257° (WSW) 03:16:35
Gurwin Techsat 1B 14 Dec 03:09:05 03:14:13 50° 290° (WNW) 03:19:19 435.225
RS-15 14 Dec 03:11:27 03:16:50 15° 266° (W) 03:22:07 29.354- 29.394
BEESAT 14 Dec 03:21:45 03:26:30 79° 257° (WSW) 03:31:17 436.000
M-CUBED/EXP-1 PRIME 14 Dec 03:37:03 03:40:46 25° 99° (E) 03:44:17 437.505
AO-7 14 Dec 03:38:19 03:46:13 44° 100° (E) 03:54:04 .
PCSat 14 Dec 03:43:23 03:48:28 39° 52° (NE) 03:53:31 145.827
ITAMSAT 1 14 Dec 03:44:03 03:48:32 29° 96° (E) 03:52:57 435.822/435.867
ITUPSAT 1 14 Dec 03:49:57 03:54:27 42° 261° (W) 03:58:58 437.325
STARS 14 Dec 04:14:25 04:15:21 11° 60° (ENE) 04:16:17 437.465
BEESAT 3 14 Dec 04:15:32 04:18:08 17° 42° (NE) 04:20:42 437.485
Oscar 19 14 Dec 04:15:38 04:16:44 11° 304° (NW) 04:17:50 437.125/150
CUBESAT XI-V 14 Dec 04:29:03 04:33:31 47° 262° (W) 04:38:03 437.345
YUBILEINY 14 Dec 04:49:28 04:57:48 46° 287° (WNW) 05:06:14 435.215
BEESAT 2 14 Dec 04:54:10 04:56:17 14° 39° (NE) 04:58:21 435.950
KKS-1 14 Dec 05:01:49 05:06:17 81° 74° (ENE) 05:10:45 437.445
DOVE 4 14 Dec 05:07:52 05:12:04 36° 96° (E) 05:16:01 437.250
M-CUBED/EXP-1 PRIME 14 Dec 05:11:03 05:15:09 34° 297° (WNW) 05:19:03 437.505
ITAMSAT 1 14 Dec 05:23:19 05:28:01 36° 293° (WNW) 05:32:41 435.822/435.867
PCSat 14 Dec 05:26:59 05:31:45 32° 250° (WSW) 05:36:29 145.827
AO-7 14 Dec 05:31:09 05:38:57 46° 299° (WNW) 05:46:45 .
XW-2B 14 Dec 05:39:01 05:40:34 12° 90° (E) 05:42:07 145.730 - 145.750
STARS 14 Dec 05:46:36 05:51:00 84° 257° (WSW) 05:55:24 437.465
XW-2F 14 Dec 05:50:54 05:53:18 16° 92° (E) 05:55:41 145.980 - 146.000
BEESAT 3 14 Dec 05:52:08 05:56:01 57° 240° (WSW) 05:59:47 437.485
XW-2C 14 Dec 06:04:58 06:08:11 25° 95° (E) 06:11:23 145.795 - 145.815
AO-85 14 Dec 06:05:46 06:09:32 23° 44° (NE) 06:13:30 145.980
STRAND 1 14 Dec 06:15:00 06:19:10 26° 65° (ENE) 06:23:19 437.568
CUTE 1.7 + AOD 2 14 Dec 06:25:46 06:27:16 12° 89° (E) 06:28:46 437.475
BEESAT 2 14 Dec 06:30:31 06:34:33 83° 236° (SW) 06:38:31 435.950
LilacSat-2 14 Dec 06:40:10 06:44:03 75° 101° (ESE) 06:47:55 437.200
CUTE-I 14 Dec 06:44:30 06:49:44 53° 101° (E) 06:54:53 437.470
HO-68 14 Dec 06:45:52 06:51:53 28° 94° (E) 06:57:49 435.675
DOVE 4 14 Dec 06:46:05 06:49:29 21° 295° (WNW) 06:52:46 437.250
XW-2D 14 Dec 06:55:19 06:59:10 74° 283° (WNW) 07:02:59 145.860 - 145.880
NUDT-PHONESAT 14 Dec 07:02:12 07:05:59 87° 101° (E) 07:09:43 437.300
KAITUO 1B 14 Dec 07:04:59 07:08:47 82° 284° (WNW) 07:12:33 145.475/437.950
CUBEBUG 2 14 Dec 07:06:25 07:09:34 20° 93° (E) 07:12:45 437.445
UWE-3 14 Dec 07:08:36 07:10:09 12° 90° (E) 07:11:43 435.000/436.395/437.385
XW-2B 14 Dec 07:11:17 07:15:00 49° 286° (WNW) 07:18:43 145.730 - 145.750
FO-29 14 Dec 07:15:45 07:22:49 40° 65° (ENE) 07:29:57 435.910
NO-84 14 Dec 07:23:52 07:26:51 73° 137° (SE) 07:30:05 435.350 FM
XW-2F 14 Dec 07:23:59 07:27:32 36° 288° (WNW) 07:31:03 145.980 - 146.000
AO-7 14 Dec 07:27:30 07:29:35 11° 321° (NW) 07:31:40 .
ZACube-1 14 Dec 07:34:43 07:36:25 12° 90° (E) 07:38:07 437.345
SEEDS 14 Dec 07:37:22 07:41:26 43° 98° (E) 07:45:28 437.485
XW-2C 14 Dec 07:39:08 07:42:14 23° 292° (WNW) 07:45:19 145.795 - 145.815
AO-85 14 Dec 07:45:31 07:50:15 58° 241° (WSW) 07:55:18 145.980
XW-2A 14 Dec 07:45:32 07:48:06 20° 95° (E) 07:50:40 145.665 - 145.685
STRAND 1 14 Dec 07:53:19 07:58:07 41° 262° (W) 08:02:58 437.568
Oscar 11 14 Dec 07:55:40 07:57:01 11° 89° (E) 07:58:22 .
AAUSAT CUBESAT 2 14 Dec 07:58:01 08:01:45 31° 96° (E) 08:05:26 437.432
CUTE 1.7 + AOD 2 14 Dec 07:59:15 08:03:30 63° 285° (WNW) 08:07:44 437.475
AO-73 14 Dec 08:07:25 08:10:59 24° 95° (E) 08:14:36 145.935
CUTE-I 14 Dec 08:25:24 08:29:21 22° 298° (WNW) 08:33:18 437.470
HO-68 14 Dec 08:32:58 08:39:57 57° 292° (WNW) 08:46:53 435.675
CUBEBUG 2 14 Dec 08:42:23 08:46:16 36° 289° (WNW) 08:50:16 437.445
UWE-3 14 Dec 08:42:43 08:46:58 64° 285° (WNW) 08:51:20 435.000/436.395/437.385
FO-29 14 Dec 09:00:13 09:07:36 48° 263° (W) 09:15:11 435.910
NO-84 14 Dec 09:02:08 09:04:28 18° 338° (NNW) 09:06:56 435.350 FM
DELFI C3 14 Dec 09:05:48 09:07:17 12° 90° (E) 09:08:46 145.870
ZACube-1 14 Dec 09:08:46 09:13:03 64° 286° (WNW) 09:17:26 437.345
O/OREOS (USA 219) 14 Dec 09:08:59 09:13:34 90° 113° (ESE) 09:18:10 437.305
SEEDS 14 Dec 09:13:57 09:16:46 17° 295° (WNW) 09:19:34 437.485
XW-2A 14 Dec 09:17:59 09:20:45 23° 290° (WNW) 09:23:29 145.665 - 145.685
Max Valier Satellite 14 Dec 09:21:19 09:22:39 12° 91° (E) 09:23:59 145.860
TIGRISAT 14 Dec 09:21:27 09:25:40 56° 73° (ENE) 09:29:49 435.000
UNISAT 6 14 Dec 09:24:33 09:28:49 67° 75° (ENE) 09:33:03 437.425
Oscar 11 14 Dec 09:29:15 09:33:36 67° 285° (WNW) 09:37:54 .
AAUSAT CUBESAT 2 14 Dec 09:33:45 09:37:01 22° 293° (WNW) 09:40:14 437.432
AO-73 14 Dec 09:43:22 09:47:12 31° 290° (WNW) 09:51:06 145.935
EO-88 14 Dec 09:49:20 09:51:47 17° 93° (E) 09:54:15 145.990 - 145.960
AIST 2D 14 Dec 10:04:23 10:06:32 16° 67° (ENE) 10:08:42 435.315
PRISM 14 Dec 10:10:55 10:15:02 65° 74° (ENE) 10:19:10 437.425
HO-68 14 Dec 10:23:45 10:26:10 12° 313° (NW) 10:28:35 435.675
POLYITAN 1 14 Dec 10:32:08 10:34:14 14° 63° (ENE) 10:36:21 437.675
DELFI C3 14 Dec 10:38:30 10:42:20 52° 287° (WNW) 10:46:08 145.870
NO-84 14 Dec 10:41:54 10:42:53 11° 0° (N) 10:43:54 435.350 FM
O/OREOS (USA 219) 14 Dec 10:51:54 10:53:40 12° 311° (NW) 10:55:26 437.305
Max Valier Satellite 14 Dec 10:53:07 10:56:43 47° 287° (WNW) 11:00:18 145.860
QB50P2 14 Dec 10:56:09 10:59:40 27° 68° (ENE) 11:03:12 145.880/145.840
TIGRISAT 14 Dec 11:00:44 11:02:41 13° 269° (W) 11:04:38 435.000
DUCHIFAT 1 14 Dec 11:02:15 11:05:26 22° 66° (ENE) 11:08:36 145.980
UNISAT 6 14 Dec 11:04:58 11:05:57 11° 271° (W) 11:06:57 437.425
EO-88 14 Dec 11:22:13 11:25:29 31° 289° (WNW) 11:28:44 145.990 - 145.960
nSIGHT-1 14 Dec 11:22:48 11:25:24 23° 135° (SE) 11:28:01 .
NANOSAT C BR1 14 Dec 11:27:31 11:31:30 46° 72° (ENE) 11:35:31 145.865
ESTCUBE 1 14 Dec 11:32:51 11:36:53 30° 96° (E) 11:40:52 437.505/2401.250
AIST 2D 14 Dec 11:36:16 11:39:25 32° 263° (W) 11:42:37 435.315
EO-79 14 Dec 11:42:24 11:46:35 79° 75° (ENE) 11:50:47 145.935-145.965
BUGSAT 1 14 Dec 11:45:03 11:47:23 15° 64° (ENE) 11:49:42 437.445
PRISM 14 Dec 11:49:44 11:50:42 11° 270° (W) 11:51:41 437.425
LO-87 14 Dec 11:53:26 11:56:59 74° 103° (ESE) 12:00:30 145.935 - 145.965
ISS 14 Dec 12:02:56 12:06:03 43° 140° (SE) 12:09:12 437.550
POLYITAN 1 14 Dec 12:05:26 12:09:32 57° 259° (W) 12:13:40 437.675
AO-91 14 Dec 12:07:44 12:10:48 17° 66° (ENE) 12:13:41 145.960
Oscar 19 14 Dec 12:12:52 12:16:47 23° 63° (ENE) 12:20:44 437.125/150
SPROUT 14 Dec 12:15:05 12:18:14 20° 93° (E) 12:21:22 437.525
NO-84 14 Dec 12:18:46 12:21:20 18° 21° (NNE) 12:24:02 435.350 FM
QB50P2 14 Dec 12:31:52 12:35:23 26° 264° (W) 12:38:56 145.880/145.840
DUCHIFAT 1 14 Dec 12:37:08 12:40:53 32° 263° (W) 12:44:39 145.980
AO-7 14 Dec 12:50:16 12:54:43 16° 45° (NE) 12:59:09 .
Gurwin Techsat 1B 14 Dec 12:51:25 12:56:15 37° 68° (ENE) 13:01:07 435.225
nSIGHT-1 14 Dec 12:58:20 13:01:27 45° 333° (NNW) 13:04:33 .
YUBILEINY 14 Dec 13:02:39 13:09:00 21° 62° (ENE) 13:15:17 435.215
NANOSAT C BR1 14 Dec 13:05:02 13:07:27 15° 268° (W) 13:09:53 145.865
VELOX 1 14 Dec 13:07:30 13:11:43 44° 99° (E) 13:15:54 145.980
ESTCUBE 1 14 Dec 13:09:45 13:13:34 27° 293° (WNW) 13:17:23 437.505/2401.250
RS-15 14 Dec 13:11:01 13:18:36 19° 97° (E) 13:26:09 29.354- 29.394
BUGSAT 1 14 Dec 13:18:28 13:22:21 46° 260° (W) 13:26:14 437.445
ISS 14 Dec 13:39:39 13:42:37 31° 338° (NNW) 13:45:36 437.550
AO-91 14 Dec 13:42:05 13:46:56 55° 260° (W) 13:51:21 145.960
UKube-1 14 Dec 13:49:49 13:52:32 16° 92° (E) 13:55:13 .
SPROUT 14 Dec 13:50:20 13:54:12 35° 290° (WNW) 13:58:04 437.525
Oscar 19 14 Dec 13:50:51 13:55:47 48° 261° (W) 14:00:46 437.125/150
NO-84 14 Dec 13:55:21 13:59:06 72° 38° (NE) 14:03:08 435.350 FM
DX 1 14 Dec 14:04:02 14:08:05 37° 98° (E) 14:12:06 434.975-435.025
M-CUBED/EXP-1 PRIME 14 Dec 14:22:10 14:26:06 34° 64° (ENE) 14:30:14 437.505
Gurwin Techsat 1B 14 Dec 14:31:39 14:36:13 29° 265° (W) 14:40:50 435.225
nSIGHT-1 14 Dec 14:35:59 14:38:14 17° 352° (N) 14:40:30 .
AO-7 14 Dec 14:37:43 14:45:51 63° 66° (ENE) 14:54:03 .
50 SAT 14 Dec 14:41:25 14:44:32 57° 285° (WNW) 14:47:36 437.505
VELOX 1 14 Dec 14:44:46 14:47:49 19° 296° (WNW) 14:50:52 145.980
YUBILEINY 14 Dec 14:58:09 15:07:02 87° 264° (W) 15:15:49 435.215
MOZHAYETS 4 14 Dec 15:02:12 15:05:52 23° 94° (E) 15:09:32
ITAMSAT 1 14 Dec 15:02:24 15:07:23 48° 70° (ENE) 15:12:23 435.822/435.867
SO-50 14 Dec 15:08:51 15:12:13 21° 112° (ESE) 15:15:38 436.795
RS-15 14 Dec 15:16:45 15:29:01 77° 118° (ESE) 15:41:12 29.354- 29.394
ISS 14 Dec 15:17:37 15:19:50 17° 357° (N) 15:22:04 437.550
BEESAT 14 Dec 15:21:35 15:25:28 24° 95° (E) 15:29:18 436.000
UKube-1 14 Dec 15:24:39 15:28:46 45° 289° (WNW) 15:32:52 .
NO-84 14 Dec 15:33:35 15:36:04 16° 234° (SW) 15:38:37 435.350 FM
DX 1 14 Dec 15:40:46 15:44:01 21° 295° (WNW) 15:47:15 434.975-435.025
ITUPSAT 1 14 Dec 15:49:19 15:53:53 45° 99° (E) 15:58:27 437.325
M-CUBED/EXP-1 PRIME 14 Dec 15:56:54 16:00:29 25° 261° (W) 16:04:14 437.505
DOVE 4 14 Dec 16:12:36 16:17:35 45° 71° (ENE) 16:22:27 437.250
nSIGHT-1 14 Dec 16:12:55 16:15:19 19° 12° (NNE) 16:17:42 .
CUBESAT XI-V 14 Dec 16:24:39 16:29:05 40° 98° (E) 16:33:30 437.345
CUTE-I 14 Dec 16:30:21 16:32:57 14° 58° (ENE) 16:35:32 437.470
AO-7 14 Dec 16:32:05 16:39:04 30° 265° (W) 16:46:10 .
MOZHAYETS 4 14 Dec 16:38:53 16:43:06 36° 290° (WNW) 16:47:19
ITAMSAT 1 14 Dec 16:43:09 16:47:04 22° 267° (W) 16:51:02 435.822/435.867
XW-2C 14 Dec 16:47:43 16:49:48 14° 65° (ENE) 16:51:53 145.795 - 145.815
SO-50 14 Dec 16:48:07 16:52:23 44° 310° (NW) 16:56:44 436.795
KKS-1 14 Dec 16:53:29 16:55:53 14° 91° (E) 16:58:16 437.445
ISS 14 Dec 16:54:23 16:57:09 24° 18° (NNE) 16:59:54 437.550
YUBILEINY 14 Dec 16:57:12 17:02:27 18° 284° (WNW) 17:07:42 435.215
BEESAT 14 Dec 16:58:57 17:03:18 37° 291° (WNW) 17:07:39 436.000
HO-68 14 Dec 17:16:04 17:21:33 24° 57° (ENE) 17:27:01 435.675
LilacSat-2 14 Dec 17:22:22 17:25:54 38° 72° (ENE) 17:29:29 437.200
ITUPSAT 1 14 Dec 17:27:51 17:31:24 21° 296° (WNW) 17:34:57 437.325
RS-15 14 Dec 17:31:14 17:42:40 41° 324° (NW) 17:53:55 29.354- 29.394
STARS 14 Dec 17:36:19 17:39:01 16° 92° (E) 17:41:43 437.465
XW-2D 14 Dec 17:36:35 17:40:16 54° 74° (ENE) 17:44:00 145.860 - 145.880
O/OREOS (USA 219) 14 Dec 17:39:51 17:43:20 21° 55° (NE) 17:46:46 437.305
NUDT-PHONESAT 14 Dec 17:41:25 17:44:51 39° 72° (ENE) 17:48:20 437.300
KAITUO 1B 14 Dec 17:44:58 17:48:33 46° 73° (ENE) 17:52:10 145.475/437.950
nSIGHT-1 14 Dec 17:48:48 17:52:00 62° 31° (NNE) 17:55:10 .
DOVE 4 14 Dec 17:51:11 17:55:22 24° 267° (W) 17:59:30 437.250
XW-2B 14 Dec 17:52:21 17:56:08 83° 76° (ENE) 17:59:57 145.730 - 145.750
CUBESAT XI-V 14 Dec 18:02:32 18:06:12 23° 294° (WNW) 18:09:50 437.345
XW-2F 14 Dec 18:04:29 18:08:13 74° 257° (WSW) 18:12:01 145.980 - 146.000
CUBEBUG 2 14 Dec 18:05:40 18:08:30 18° 66° (ENE) 18:11:18 437.445
CUTE-I 14 Dec 18:06:50 18:12:13 89° 255° (WSW) 18:17:37 437.470
UWE-3 14 Dec 18:07:52 18:08:22 10° 61° (ENE) 18:08:52 435.000/436.395/437.385
XW-2C 14 Dec 18:20:00 18:23:35 42° 261° (W) 18:27:14 145.795 - 145.815
PCSat 14 Dec 18:26:09 18:30:44 29° 109° (ESE) 18:35:22 145.827
KKS-1 14 Dec 18:28:26 18:32:46 54° 288° (WNW) 18:37:03 437.445
SEEDS 14 Dec 18:29:23 18:33:09 32° 70° (ENE) 18:36:56 437.485
ISS 14 Dec 18:30:37 18:33:54 73° 216° (SW) 18:37:10 437.550
AAUSAT CUBESAT 2 14 Dec 18:48:43 18:52:01 23° 68° (ENE) 18:55:19 437.432
CUTE 1.7 + AOD 2 14 Dec 18:51:51 18:56:06 85° 256° (WSW) 19:00:24 437.475
Oscar 11 14 Dec 18:52:21 18:52:58 10° 60° (ENE) 18:53:35 .
LilacSat-2 14 Dec 18:58:05 19:00:20 15° 268° (W) 19:02:36 437.200
HO-68 14 Dec 19:01:25 19:08:36 73° 256° (WSW) 19:15:49 435.675
AO-73 14 Dec 19:04:03 19:07:00 19° 66° (ENE) 19:09:59 145.935
STARS 14 Dec 19:11:25 19:15:36 47° 289° (WNW) 19:19:45 437.465
XW-2D 14 Dec 19:14:00 19:14:45 10° 270° (W) 19:15:32 145.860 - 145.880
NUDT-PHONESAT 14 Dec 19:16:56 19:18:52 14° 269° (W) 19:20:48 437.300
O/OREOS (USA 219) 14 Dec 19:18:41 19:22:54 41° 254° (WSW) 19:27:05 437.305
KAITUO 1B 14 Dec 19:21:18 19:22:46 12° 270° (W) 19:24:16 145.475/437.950
nSIGHT-1 14 Dec 19:25:49 19:27:53 16° 227° (SW) 19:29:56 .
UWE-3 14 Dec 19:40:04 19:44:12 76° 258° (WSW) 19:48:21 435.000/436.395/437.385
CUBEBUG 2 14 Dec 19:40:52 19:44:50 40° 262° (W) 19:48:46 437.445
BEESAT 3 14 Dec 19:42:41 19:45:26 18° 112° (ESE) 19:48:12 437.485
XW-2A 14 Dec 19:48:30 19:51:48 65° 259° (WSW) 19:55:10 145.665 - 145.685
RS-15 14 Dec 19:50:16 19:59:42 25° 357° (N) 20:08:51 29.354- 29.394
CUTE-I 14 Dec 19:51:29 19:52:58 11° 272° (W) 19:54:28 437.470
STRAND 1 14 Dec 20:02:37 20:07:41 64° 102° (ESE) 20:12:43 437.568
ZACube-1 14 Dec 20:04:53 20:09:00 78° 257° (WSW) 20:13:09 437.345
SEEDS 14 Dec 20:05:34 20:08:52 22° 267° (W) 20:12:11 437.485
PCSat 14 Dec 20:08:50 20:13:56 42° 307° (NW) 20:19:07 145.827
FO-29 14 Dec 20:10:44 20:16:30 28° 91° (E) 20:21:43 435.910
AAUSAT CUBESAT 2 14 Dec 20:23:36 20:27:18 31° 264° (W) 20:31:02 437.432
BEESAT 2 14 Dec 20:23:38 20:25:41 14° 109° (ESE) 20:27:45 435.950
Oscar 11 14 Dec 20:24:07 20:28:24 83° 255° (WSW) 20:32:46 .
AO-73 14 Dec 20:39:13 20:43:00 35° 263° (W) 20:46:49 145.935
HO-68 14 Dec 20:54:59 20:57:29 12° 274° (W) 20:59:58 435.675
TIGRISAT 14 Dec 21:14:19 21:15:27 11° 89° (E) 21:16:34 435.000
UNISAT 6 14 Dec 21:16:47 21:18:51 13° 91° (E) 21:20:57 437.425
BEESAT 3 14 Dec 21:18:52 21:22:39 42° 309° (NW) 21:26:29 437.485
DELFI C3 14 Dec 21:23:28 21:27:27 90° 236° (WSW) 21:31:28 145.870
Max Valier Satellite 14 Dec 21:31:48 21:35:26 77° 76° (ENE) 21:39:06 145.860
STRAND 1 14 Dec 21:43:06 21:46:20 17° 299° (WNW) 21:49:34 437.568
FO-29 14 Dec 21:55:13 22:01:55 50° 292° (WNW) 22:07:49 435.910
BEESAT 2 14 Dec 21:58:58 22:02:55 56° 307° (NW) 22:06:56 435.950
EO-88 14 Dec 21:59:25 22:03:02 69° 259° (WSW) 22:06:41 145.990 - 145.960
AO-85 14 Dec 22:01:06 22:04:40 36° 116° (ESE) 22:08:24 145.980
RS-15 14 Dec 22:06:11 22:17:00 37° 32° (NNE) 22:27:18 29.354- 29.394
LO-87 14 Dec 22:29:50 22:32:57 30° 71° (ENE) 22:36:04 145.935 - 145.965
ESTCUBE 1 14 Dec 22:32:51 22:36:47 30° 68° (ENE) 22:40:45 437.505/2401.250
FALCONSAT 3 14 Dec 22:42:31 22:44:48 16° 161° (SSE) 22:47:05 435.103
TIGRISAT 14 Dec 22:48:14 22:52:33 69° 285° (WNW) 22:56:57 435.000
UNISAT 6 14 Dec 22:51:38 22:55:54 58° 286° (WNW) 23:00:14 437.425
AIST 2D 14 Dec 23:00:44 23:03:03 16° 93° (E) 23:05:22 435.315
SPROUT 14 Dec 23:09:17 23:12:06 18° 65° (ENE) 23:14:55 437.525
PRISM 14 Dec 23:26:26 23:30:33 83° 286° (WNW) 23:34:37 437.425
EO-79 14 Dec 23:28:13 23:29:48 12° 90° (E) 23:31:23 145.935-145.965
SO-50 14 Dec 23:38:15 23:42:15 28° 45° (NE) 23:46:18 436.795
AO-85 14 Dec 23:41:55 23:45:09 23° 316° (NW) 23:48:33 145.980
POLYITAN 1 14 Dec 23:49:53 23:53:08 21° 94° (E) 23:56:20 437.675
LO-87 15 Dec 00:04:09 00:06:25 16° 267° (W) 00:08:40 145.935 - 145.965
VELOX 1 15 Dec 00:04:56 00:09:08 42° 71° (ENE) 00:13:20 145.980
ESTCUBE 1 15 Dec 00:09:45 00:13:33 27° 265° (W) 00:17:24 437.505/2401.250
QB50P2 15 Dec 00:15:00 00:19:03 44° 99° (E) 00:23:06 145.880/145.840
RS-15 15 Dec 00:19:07 00:31:00 86° 239° (WSW) 00:42:11 29.354- 29.394
DUCHIFAT 1 15 Dec 00:19:49 00:23:39 34° 98° (E) 00:27:27 145.980
FALCONSAT 3 15 Dec 00:20:10 00:23:17 26° 176° (S) 00:26:25 435.103
AIST 2D 15 Dec 00:33:08 00:36:16 29° 289° (WNW) 00:39:22 435.315
